ORBCOMM FM34 [+]

Last updated on Fri Feb 23 2018 00:19:46 GMT+0000 (Coordinated Universal Time)

1 25986U 99065G 18053.43661658 .00000050 00000-0 69502-4 0 9996 2 25986 45.0408 66.1442 0003890 325.0089 35.0501 14.32578441951584

Satellite not in orbit

ORBCOMM FM34 [+]